GAOFEN 9-02 (45625 NORAD) Tracking and Keplerian Element Data

This shows tracking and keplerian element data for the satellite.

Feedback or suggestion? Click here.




ElementValue
Catalog45625
NameGAOFEN 9-02
Epoch Orbit497
Epoch Day185.15225627
Epoch Year2020
RAAN329.736
Inclination97.2899
Eccentricity0.0013899
Argument of Perigee145.2152
Mean Anonmoly27.8063
Mean Motion15.23623875
Decay Rate3.8E-06
L11 45625U 20034B 20185.15225627 .00000380 00000-0 18699-4 0 9995
L22 45625 97.2899 329.7360 0013899 145.2152 27.8063 15.23623875 4976

Live tracking and technical data element details for GAOFEN 9-02 (NORAD 45625). GAOFEN 9-02 can be tracked NOW for your location showing map with azimuth and elevation plus other details from your city location.

Track the satellite on the map from your city or location and see movement details for azimuth, elevation, latitude, longitude, range, height, and movement on the map or in text.







IsCatalogInMostPopularTable: catalog: 45625, numindb: 2
Update: records affected: 1



GetName: 45625 GAOFEN 9-02

Hit Count: updated at: Fri, 03 Jul 2020 15:52:25 GMT